Find Starlink 31080

NORAD ID: 58603 Int'l Des: 2023-200 Owner: SPXS Country: US Constellation: starlink operational
LEOCIRCULAR

Live-Position

3D-Globus wird geladen...

Über Starlink 31080

Beschreibung wird geladen...

Nächste Überflüge

Passes for default location (London). Set your location on the main map for personalized predictions.

Höhenverlauf

Loading altitude history...

Zweizeiliger Elementsatz

1 58603U 23200Q 26110.21281052 -.00000042 00000-0 80983-5 0 9990
2 58603 43.0022 294.1380 0001066 276.5649 83.5081 15.26738241129774
Epoch: 20. Apr. 2026 • Age: 14 hours

Aktueller Status

Höhe 497.2 km
Geschwindigkeit 7.62 km/s
Subsatellitenpunkt -40.49°S, 46.16°E
Startdatum 19. Dez. 2023
Alter 2.3 years
Typ internet

Technische Details

Klassifizierung Payload
Masse 730.00 kg
Trockenmasse 700.00 kg
Gesamtmasse 730.00 kg
Länge 0.30 m
Durchmesser 4.10 m
Spannweite 29.00 m
Form Box + pan
Hersteller SPXS
Bus-Typ Starlink V2M
Phasenstatus In Orbit
Besitzer/Staat SPXS/US

Most Searched